Flag for Canada Weather past 2 weeks in Charlottetown, Pr.Edward I, Canada

Now
57 °F

Overcast.


Feels Like: 57 °F
Forecast: 49 / 59 °F
Wind: 2 mph from North

Location: Charlottetown

Current Time: Sep 30, 2014 at 9:19:03 PM

Latest Report: Sep 30, 2014 at 8:00 PM


Visibility: 10 mi

Pressure: 30.07 "Hg

Humidity: 88%

Dew point: 54 °F

Location of CharlottetownLocation

Historic Weather in Charlottetown — Graph

°F

Charlottetown temperature yesterday

Maximum temperature yesterday: 63 °F (at 12:00 AM)
Minimum temperature yesterday: 46 °F (at 6:00 PM)
Average temperature yesterday: 52 °F

Past Weeks' High & Low Weather Summary

 TemperatureHumidityPressure
High77 °F (Sep 28, 3:00 PM)100% (Sep 18, 3:00 AM)30.62 "Hg (Sep 18, 3:00 AM)
Low39 °F (Sep 19, 7:00 AM)43% (Sep 17, 2:00 PM)29.33 "Hg (Sep 22, 7:00 AM)
Average56 °F74%30.05 "Hg
* Reported Sep 15 8:00 PM — Sep 30 8:00 PM, Charlottetown, Weather by CustomWeather, © 2014

Note: Actual official high and low records may vary slightly from our data, if they occured in-between our weather recording intervals... More about our weather records

Advertising

Charlottetown weather history for previous 24 hours

 ConditionsComfort  
Time TempWeatherWind HumidityBarometerVisibility
8:00 PM
Sep 30
57 °FOvercast.2 mph88%30.07 "Hg10 mi
7:00 PM59 °FOvercast.3 mph82%30.07 "Hg15 mi
6:00 PM59 °FMostly cloudy.5 mph82%30.07 "Hg15 mi
5:00 PM59 °FMore clouds than sun.7 mph82%30.07 "Hg15 mi
4:00 PM59 °FMostly cloudy.6 mph82%30.07 "Hg15 mi
3:00 PM59 °FBroken clouds.9 mph82%30.07 "Hg15 mi
2:00 PM57 °FOvercast.6 mph82%30.10 "Hg15 mi
12:00 PM55 °FOvercast.10 mph88%30.13 "Hg15 mi
11:00 AM54 °FOvercast.9 mph88%30.13 "Hg15 mi
10:00 AM52 °FOvercast.6 mph82%30.15 "Hg15 mi
9:00 AM50 °FOvercast.6 mph82%30.17 "Hg15 mi
8:00 AM48 °FOvercast.6 mph87%30.17 "Hg15 mi
7:00 AM48 °FMostly cloudy.7 mph87%30.16 "Hg15 mi
6:00 AM48 °FMostly cloudy.6 mph87%30.16 "Hg15 mi
5:00 AM48 °FOvercast.7 mph82%30.17 "Hg15 mi
4:00 AM48 °FOvercast.8 mph76%30.19 "Hg15 mi
3:00 AM46 °FOvercast.6 mph76%30.20 "Hg15 mi
2:00 AM46 °FOvercast.8 mph71%30.20 "Hg15 mi
1:00 AM46 °FOvercast.12 mph71%30.21 "Hg15 mi
12:00 AM46 °FMostly cloudy.14 mph71%30.21 "Hg15 mi
11:00 PM
Sep 29
46 °FMostly cloudy.13 mph66%30.22 "Hg15 mi
10:00 PM46 °FMostly cloudy.10 mph66%30.24 "Hg15 mi
9:00 PM46 °FOvercast.9 mph66%30.24 "Hg15 mi
Weather by CustomWeather, © 2014

See weather overviewHow to use our weather pages